Location: A�t �Alizem
(31.2076°N, 8.7872°W)
Time: 15:28:02
(UTC+00:00)

Meteor 1-25 Rocket - Pass Details

Date: 27 November 2020
Orbit: 837 x 890 km, 81.2° (Epoch: 26 January)

Event Time Altitude Azimuth Distance (km) Brightness Sun altitude
Rises 18:49:35 0° 350° (N) 3,420 7.3 -16.3°
Reaches altitude 10° 18:51:59 10° 349° (N) 2,488 6.6 -16.8°
Maximum altitude 18:57:38 77° 264° (W) 888 4.4 -17.9°
Drops below altitude 10° 19:03:19 10° 179° (S) 2,510 6.8 -19.1°
Sets 19:05:46 0° 178° (S) 3,453 7.5 -19.6°
